START_TIME,STEP,MOV.,M34,t_acc.,L5,t_acc.,L18,t_acc.,L14,t_acc.
1981-08-26 09:00:25.590 ,3,1,0.,12.0,0.,12.0,0.,12.0,0.,12.0
1981-08-26 09:00:37.590 ,3,1,0.,12.0,0.,12.0,0.,12.0,0.,12.0
1981-08-26 09:00:49.590 ,4,1,0.,12.0,0.,12.0,0.,12.0,0.,12.0
1981-08-26 09:01:01.590 ,4,1,0.,12.0,0.,12.0,0.,12.0,0.,12.0
1981-08-26 09:01:13.590 ,5,1,0.,12.0,0.,12.0,0.,12.0,0.,12.0
1981-08-26 09:01:25.590 ,5,1,0.,12.0,0.,12.0,0.,12.0,0.,12.0
1981-08-26 09:01:37.590 ,6,1,0.,12.0,0.,12.0,0.,12.0,0.,12.0
1981-08-26 09:01:49.590 ,6,1,0.,12.0,0.,12.0,0.,12.0,0.,12.0
1981-08-26 09:02:01.590 ,7,1,0.,12.0,0.,12.0,0.,12.0,0.,12.0
1981-08-26 09:02:13.590 ,7,1,0.,12.0,0.,12.0,0.,12.0,0.,12.0
1981-08-26 09:02:25.590 ,7,1,0.,12.0,0.,12.0,0.,12.0,0.,12.0
1981-08-26 09:02:37.590 ,7,1,0.,12.0,0.,12.0,0.,12.0,0.,12.0
1981-08-26 09:02:49.590 ,6,1,0.,12.0,0.,12.0,0.,12.0,0.,12.0
1981-08-26 09:03:01.590 ,6,1,0.,12.0,0.,12.0,0.,12.0,0.,12.0
1981-08-26 09:03:13.590 ,5,1,0.,12.0,0.,12.0,0.,12.0,0.,12.0
1981-08-26 09:03:25.590 ,5,1,0.,12.0,0.,12.0,0.,12.0,0.,12.0
1981-08-26 09:03:37.590 ,4,1,0.,12.0,0.,12.0,0.,12.0,0.,12.0
1981-08-26 09:03:49.590 ,4,1,0.,12.0,0.,12.0,0.,12.0,0.,12.0
1981-08-26 09:04:01.590 ,3,1,0.,12.0,0.,12.0,0.,12.0,0.,12.0
1981-08-26 09:04:13.590 ,3,1,0.,12.0,0.,12.0,0.,12.0,0.,12.0
1981-08-26 09:04:25.590 ,2,1,0.,12.0,0.,12.0,0.,12.0,0.,12.0
1981-08-26 09:04:37.590 ,2,1,0.,12.0,0.,12.0,0.,12.0,0.,12.0
1981-08-26 09:04:49.590 ,1,1,0.,12.0,0.,12.0,0.,12.0,0.,12.0
1981-08-26 09:05:01.590 ,1,1,0.,12.0,0.,12.0,0.,12.0,0.,12.0
1981-08-26 09:05:13.590 ,0,1,0.,12.0,0.,12.0,0.,12.0,0.,12.0
1981-08-26 09:05:25.590 ,0,1,0.,12.0,0.,12.0,0.,12.0,0.,12.0
1981-08-26 09:05:37.590 ,0,1,0.,12.0,0.,12.0,0.,12.0,0.,12.0
1981-08-26 09:05:49.590 ,0,1,0.,12.0,0.,12.0,0.,12.0,0.,12.0
1981-08-26 09:06:01.590 ,1,1,0.,12.0,0.,12.0,0.,12.0,0.,12.0
1981-08-26 09:06:13.590 ,1,1,0.,12.0,0.,12.0,0.,12.0,0.,12.0
1981-08-26 09:07:13.590 ,0,0,0.,12.0,0.,12.0,0.,12.0,0.,12.0
1981-08-26 09:07:25.590 ,0,0,0.,12.0,0.,12.0,0.,12.0,0.,12.0
1981-08-26 09:07:37.590 ,5,1,0.,12.0,0.,12.0,0.,12.0,0.,12.0
1981-08-26 09:07:49.590 ,5,1,0.,12.0,0.,12.0,0.,12.0,0.,12.0
1981-08-26 09:08:01.590 ,6,1,0.,12.0,0.,12.0,0.,12.0,0.,12.0
1981-08-26 09:08:13.590 ,6,1,0.,12.0,0.,12.0,0.,12.0,0.,12.0
1981-08-26 09:08:25.590 ,7,1,0.,12.0,0.,12.0,0.,12.0,0.,12.0
1981-08-26 09:08:37.590 ,7,1,0.,12.0,0.,12.0,0.,12.0,0.,12.0
1981-08-26 09:08:49.590 ,7,1,0.,12.0,0.,12.0,0.,12.0,0.,12.0
1981-08-26 09:09:01.590 ,7,1,0.,12.0,0.,12.0,0.,12.0,0.,12.0
1981-08-26 09:09:13.590 ,6,1,0.,12.0,0.,12.0,0.,12.0,0.,12.0
1981-08-26 09:09:25.590 ,6,1,0.,12.0,0.,12.0,0.,12.0,0.,12.0
1981-08-26 09:09:37.590 ,5,1,0.,12.0,0.,12.0,0.,12.0,0.,12.0
1981-08-26 09:09:49.590 ,5,1,0.,12.0,0.,12.0,0.,12.0,0.,12.0
1981-08-26 09:10:01.590 ,4,1,0.,12.0,0.,12.0,0.,12.0,0.,12.0
1981-08-26 09:10:13.590 ,4,1,0.,12.0,0.,12.0,0.,12.0,0.,12.0
1981-08-26 09:10:25.590 ,3,1,0.,12.0,0.,12.0,0.,12.0,0.,12.0
1981-08-26 09:10:37.590 ,3,1,0.,12.0,0.,12.0,0.,12.0,0.,12.0
1981-08-26 09:10:49.590 ,2,1,0.,12.0,0.,12.0,0.,12.0,0.,12.0
1981-08-26 09:11:01.590 ,2,1,0.,12.0,0.,12.0,0.,12.0,0.,12.0
1981-08-26 09:11:13.590 ,1,1,0.,12.0,0.,12.0,0.,12.0,0.,12.0
1981-08-26 09:11:25.590 ,1,1,0.,12.0,0.,12.0,0.,12.0,0.,12.0
1981-08-26 09:11:37.590 ,0,1,0.,12.0,0.,12.0,0.,12.0,0.,12.0
1981-08-26 09:11:49.590 ,0,1,0.,12.0,0.,12.0,0.,12.0,0.,12.0
1981-08-26 09:12:01.590 ,0,1,0.,12.0,0.,12.0,0.,12.0,0.,12.0
1981-08-26 09:12:13.590 ,0,1,0.,12.0,0.,12.0,0.,12.0,0.,12.0
1981-08-26 09:12:25.590 ,1,1,0.,12.0,0.,12.0,0.,12.0,0.,12.0
1981-08-26 09:12:37.590 ,1,1,0.,12.0,0.,12.0,0.,12.0,0.,12.0
1981-08-26 09:12:49.590 ,2,1,0.,12.0,0.,12.0,0.,12.0,0.,12.0
1981-08-26 09:13:01.590 ,2,1,0.,12.0,0.,12.0,0.,12.0,0.,12.0
1981-08-26 09:13:13.590 ,3,1,0.,12.0,0.,12.0,0.,12.0,0.,12.0
1981-08-26 09:13:25.590 ,3,1,0.,12.0,0.,12.0,0.,12.0,0.,12.0
1981-08-26 09:13:37.590 ,4,1,0.,12.0,0.,12.0,0.,12.0,0.,12.0
1981-08-26 09:13:49.590 ,4,1,0.,12.0,0.,12.0,0.,12.0,0.,12.0
1981-08-26 09:14:01.590 ,5,1,0.,12.0,0.,12.0,0.,12.0,0.,12.0
1981-08-26 09:14:13.590 ,5,1,0.,12.0,0.,12.0,0.,12.0,0.,12.0
1981-08-26 09:14:25.590 ,6,1,0.,12.0,0.,12.0,0.,12.0,0.,12.0
1981-08-26 09:14:37.590 ,6,1,0.,12.0,0.,12.0,0.,12.0,0.,12.0
1981-08-26 09:14:49.590 ,7,1,0.,12.0,0.,12.0,0.,12.0,0.,12.0
1981-08-26 09:15:01.590 ,7,1,0.,12.0,0.,12.0,0.,12.0,0.,12.0
1981-08-26 09:15:13.590 ,7,1,0.,12.0,0.,12.0,0.,12.0,0.,12.0
1981-08-26 09:15:25.590 ,7,1,0.,12.0,0.,12.0,0.,12.0,0.,12.0
1981-08-26 09:15:37.590 ,6,1,0.,12.0,0.,12.0,0.,12.0,0.,12.0
1981-08-26 09:15:49.590 ,6,1,0.,12.0,0.,12.0,0.,12.0,0.,12.0
1981-08-26 09:16:01.590 ,0,0,0.,12.0,0.,12.0,0.,12.0,0.,12.0
1981-08-26 09:16:13.590 ,0,0,0.,12.0,0.,12.0,0.,12.0,0.,12.0
1981-08-26 09:16:25.590 ,0,0,,0,,0,,0,,0
1981-08-26 09:16:37.590 ,0,0,,0,,0,,0,,0
1981-08-26 09:16:53.790 ,0,0,,0,,0,,0,,0
1981-08-26 09:17:05.790 ,0,0,0.,12.0,0.,12.0,0.,12.0,0.,12.0
1981-08-26 09:17:13.590 ,2,1,0.,12.0,0.,12.0,0.,12.0,0.,12.0
1981-08-26 09:17:25.590 ,2,1,0.,12.0,0.,12.0,0.,12.0,0.,12.0
1981-08-26 09:17:37.590 ,1,1,0.,12.0,0.,12.0,0.,12.0,0.,12.0
1981-08-26 09:17:49.590 ,1,1,0.,12.0,0.,12.0,0.,12.0,0.,12.0
1981-08-26 09:18:01.590 ,0,1,0.,12.0,0.,12.0,0.,12.0,0.,12.0
1981-08-26 09:18:13.590 ,0,1,0.,12.0,0.,12.0,0.,12.0,0.,12.0
1981-08-26 09:18:25.590 ,0,1,0.,12.0,0.,12.0,0.,12.0,0.,12.0
1981-08-26 09:18:37.590 ,0,1,0.,12.0,0.,12.0,0.,12.0,0.,12.0
1981-08-26 09:18:49.590 ,1,1,0.,12.0,0.,12.0,0.,12.0,0.,12.0
1981-08-26 09:19:01.590 ,1,1,0.,12.0,0.,12.0,0.,12.0,0.,12.0
1981-08-26 09:19:13.590 ,2,1,0.,12.0,0.,12.0,0.,12.0,0.,12.0
1981-08-26 09:19:25.590 ,2,1,0.,12.0,0.,12.0,0.,12.0,0.,12.0
1981-08-26 09:19:37.590 ,3,1,0.,12.0,0.,12.0,0.,12.0,0.,12.0
1981-08-26 09:19:49.590 ,3,1,0.,12.0,0.,12.0,0.,12.0,0.,12.0
1981-08-26 09:20:01.590 ,4,1,0.,12.0,0.,12.0,0.,12.0,0.,12.0
1981-08-26 09:20:13.590 ,4,1,0.,12.0,0.,12.0,0.,12.0,0.,12.0
1981-08-26 09:20:25.590 ,5,1,0.,12.0,0.,12.0,0.,12.0,0.,12.0
1981-08-26 09:20:37.590 ,5,1,0.,12.0,0.,12.0,0.,12.0,0.,12.0
1981-08-26 09:20:49.590 ,6,1,0.,12.0,0.,12.0,0.,12.0,0.,12.0
1981-08-26 09:21:01.590 ,6,1,0.,12.0,0.,12.0,0.,12.0,0.,12.0
1981-08-26 09:21:13.590 ,7,1,0.,12.0,0.,12.0,0.,12.0,0.,12.0
1981-08-26 09:21:25.590 ,7,1,0.,12.0,0.,12.0,0.,12.0,0.,12.0
1981-08-26 09:21:37.590 ,7,1,0.,12.0,0.,12.0,0.,12.0,0.,12.0
1981-08-26 09:21:49.590 ,7,1,0.,12.0,0.,12.0,0.,12.0,0.,12.0
1981-08-26 09:22:01.590 ,6,1,0.,12.0,0.,12.0,0.,12.0,0.,12.0
1981-08-26 09:22:13.590 ,6,1,0.,12.0,0.,12.0,0.,12.0,0.,12.0
1981-08-26 09:22:25.590 ,5,1,0.,12.0,0.,12.0,0.,12.0,0.,12.0
1981-08-26 09:22:37.590 ,5,1,0.,12.0,0.,12.0,0.,12.0,0.,12.0
1981-08-26 09:22:49.590 ,4,1,0.,12.0,0.,12.0,0.,12.0,0.,12.0
1981-08-26 09:23:01.590 ,4,1,0.,12.0,0.,12.0,0.,12.0,0.,12.0
1981-08-26 09:23:13.590 ,3,1,0.,12.0,0.,12.0,0.,12.0,0.,12.0
1981-08-26 09:23:25.590 ,3,1,0.,12.0,0.,12.0,0.,12.0,0.,12.0
1981-08-26 09:23:37.590 ,2,1,0.,12.0,0.,12.0,0.,12.0,0.,12.0
1981-08-26 09:23:49.590 ,2,1,0.,12.0,0.,12.0,0.,12.0,0.,12.0
1981-08-26 09:24:01.590 ,1,1,0.,12.0,0.,12.0,0.,12.0,0.,12.0
1981-08-26 09:24:13.590 ,1,1,0.,12.0,0.,12.0,0.,12.0,0.,12.0
1981-08-26 09:24:25.590 ,0,1,0.,12.0,0.,12.0,0.,12.0,0.,12.0
1981-08-26 09:24:37.590 ,0,1,0.,12.0,0.,12.0,0.,12.0,0.,12.0
1981-08-26 09:24:49.590 ,0,1,0.,12.0,0.,12.0,0.,12.0,0.,12.0
1981-08-26 09:25:01.590 ,0,1,0.,12.0,0.,12.0,0.,12.0,0.,12.0
1981-08-26 09:25:13.590 ,1,1,0.,12.0,0.,12.0,0.,12.0,0.,12.0
1981-08-26 09:25:25.590 ,1,1,0.,12.0,0.,12.0,0.,12.0,0.,12.0
1981-08-26 09:25:37.590 ,2,1,0.,12.0,0.,12.0,0.,12.0,0.,12.0
1981-08-26 09:25:49.590 ,2,1,0.,12.0,0.,12.0,0.,12.0,0.,12.0
1981-08-26 09:26:01.590 ,3,1,0.,12.0,0.,12.0,0.,12.0,0.,12.0
1981-08-26 09:26:13.590 ,3,1,0.,12.0,0.,12.0,0.,12.0,0.,12.0
1981-08-26 09:26:25.590 ,4,1,0.,12.0,0.,12.0,0.,12.0,0.,12.0
1981-08-26 09:26:37.590 ,4,1,0.,12.0,0.,12.0,0.,12.0,0.,12.0
1981-08-26 09:26:49.590 ,5,1,0.,12.0,0.,12.0,0.,12.0,0.,12.0
1981-08-26 09:27:01.590 ,5,1,0.,12.0,0.,12.0,0.,12.0,0.,12.0
1981-08-26 09:27:13.590 ,6,1,0.,12.0,0.,12.0,0.,12.0,0.,12.0
1981-08-26 09:27:25.590 ,6,1,0.,12.0,0.,12.0,0.,12.0,0.,12.0
1981-08-26 09:27:37.590 ,7,1,0.,12.0,0.,12.0,0.,12.0,0.,12.0
1981-08-26 09:27:49.590 ,7,1,0.,12.0,0.,12.0,0.,12.0,0.,12.0
1981-08-26 09:28:49.590 ,0,0,0.,12.0,0.,12.0,0.,12.0,0.,12.0
1981-08-26 09:29:01.590 ,0,0,0.,12.0,0.,12.0,0.,12.0,0.,12.0
1981-08-26 09:29:13.590 ,4,1,0.,12.0,0.,12.0,0.,12.0,0.,12.0
1981-08-26 09:29:25.590 ,4,1,0.,12.0,0.,12.0,0.,12.0,0.,12.0
1981-08-26 09:29:37.590 ,3,1,0.,12.0,0.,12.0,0.,12.0,0.,12.0
1981-08-26 09:29:49.590 ,3,1,0.,12.0,0.,12.0,0.,12.0,0.,12.0
1981-08-26 09:30:01.590 ,2,1,0.,12.0,0.,12.0,0.,12.0,0.,12.0
1981-08-26 09:30:13.590 ,2,1,0.,12.0,0.,12.0,0.,12.0,0.,12.0
1981-08-26 09:30:25.590 ,1,1,0.,12.0,0.,12.0,0.,12.0,0.,12.0
1981-08-26 09:30:37.590 ,1,1,0.,12.0,0.,12.0,0.,12.0,0.,12.0
1981-08-26 09:30:49.590 ,0,1,0.,12.0,0.,12.0,0.,12.0,0.,12.0
1981-08-26 09:31:01.590 ,0,1,0.,12.0,0.,12.0,0.,12.0,0.,12.0
1981-08-26 09:31:13.590 ,0,1,0.,12.0,0.,12.0,0.,12.0,0.,12.0
1981-08-26 09:31:25.590 ,0,1,0.,12.0,0.,12.0,0.,12.0,0.,12.0
1981-08-26 09:31:37.590 ,1,1,0.,12.0,0.,12.0,0.,12.0,0.,12.0
1981-08-26 09:31:49.590 ,1,1,0.,12.0,0.,12.0,0.,12.0,0.,12.0
1981-08-26 09:32:01.590 ,2,1,0.,12.0,0.,12.0,0.,12.0,0.,12.0
1981-08-26 09:32:13.590 ,2,1,0.,12.0,0.,12.0,0.,12.0,0.,12.0
1981-08-26 09:32:25.590 ,3,1,0.,12.0,0.,12.0,0.,12.0,0.,12.0
1981-08-26 09:32:37.590 ,3,1,0.,12.0,0.,12.0,0.,12.0,0.,12.0
1981-08-26 09:32:49.590 ,4,1,0.,12.0,0.,12.0,0.,12.0,0.,12.0
1981-08-26 09:33:01.590 ,4,1,0.,12.0,0.,12.0,0.,12.0,0.,12.0
1981-08-26 09:33:13.590 ,5,1,0.,12.0,0.,12.0,0.,12.0,0.,12.0
1981-08-26 09:33:25.590 ,5,1,0.,12.0,0.,12.0,0.,12.0,0.,12.0
1981-08-26 09:33:37.590 ,6,1,0.,12.0,0.,12.0,0.,12.0,0.,12.0
1981-08-26 09:33:49.590 ,6,1,0.,12.0,0.,12.0,0.,12.0,0.,12.0
1981-08-26 09:34:01.590 ,7,1,0.,12.0,0.,12.0,0.,12.0,0.,12.0
1981-08-26 09:34:13.590 ,7,1,0.,12.0,0.,12.0,0.,12.0,0.,12.0
1981-08-26 09:34:25.590 ,7,1,0.,12.0,0.,12.0,0.,12.0,0.,12.0
1981-08-26 09:34:37.590 ,7,1,0.,12.0,0.,12.0,0.,12.0,0.,12.0
1981-08-26 09:34:49.590 ,6,1,0.,12.0,0.,12.0,0.,12.0,0.,12.0
1981-08-26 09:35:01.590 ,6,1,0.,12.0,0.,12.0,0.,12.0,0.,12.0
1981-08-26 09:35:13.590 ,5,1,0.,12.0,0.,12.0,0.,12.0,0.,12.0
1981-08-26 09:35:25.590 ,5,1,0.,12.0,0.,12.0,0.,12.0,0.,12.0
1981-08-26 09:35:37.590 ,0,0,0.,12.0,0.,12.0,0.,12.0,0.,12.0
1981-08-26 09:35:49.590 ,0,0,,0,,0,,0,,0
1981-08-26 09:35:37.590 ,5,0,0.,12.0,0.,12.0,0.,12.0,0.,12.0
1981-08-26 09:35:49.590 ,5,0,,0,,0,,0,,0
1981-08-26 09:36:01.590 ,0,0,0.,12.0,0.,12.0,0.,12.0,0.,12.0
1981-08-26 09:36:13.590 ,0,0,0.,12.0,0.,12.0,0.,12.0,0.,12.0
1981-08-26 09:36:25.590 ,0,0,,0,,0,,0,,0
1981-08-26 09:36:37.590 ,0,0,,0,,0,,0,,0
1981-08-26 09:36:51.390 ,0,0,0.,12.0,0.,12.0,0.,12.0,0.,12.0
1981-08-26 09:37:03.390 ,0,0,0.,12.0,0.,12.0,0.,12.0,0.,12.0
1981-08-26 09:37:13.590 ,0,1,0.,12.0,0.,12.0,0.,12.0,0.,12.0
1981-08-26 09:37:25.590 ,0,1,0.,12.0,0.,12.0,0.,12.0,0.,12.0
1981-08-26 09:37:37.590 ,0,1,0.,12.0,0.,12.0,0.,12.0,0.,12.0
1981-08-26 09:37:49.590 ,0,1,0.,12.0,0.,12.0,0.,12.0,0.,12.0
1981-08-26 09:38:01.590 ,1,1,0.,12.0,0.,12.0,0.,12.0,0.,12.0
1981-08-26 09:38:13.590 ,1,1,0.,12.0,0.,12.0,0.,12.0,0.,12.0
1981-08-26 09:38:25.590 ,2,1,0.,12.0,0.,12.0,0.,12.0,0.,12.0
1981-08-26 09:38:37.590 ,2,1,0.,12.0,0.,12.0,0.,12.0,0.,12.0
1981-08-26 09:38:49.590 ,3,1,0.,12.0,0.,12.0,0.,12.0,0.,12.0
1981-08-26 09:39:01.590 ,3,1,0.,12.0,0.,12.0,0.,12.0,0.,12.0
1981-08-26 09:39:13.590 ,4,1,0.,12.0,0.,12.0,0.,12.0,0.,12.0
1981-08-26 09:39:25.590 ,4,1,0.,12.0,0.,12.0,0.,12.0,0.,12.0
1981-08-26 09:39:37.590 ,5,1,0.,12.0,0.,12.0,0.,12.0,0.,12.0
1981-08-26 09:39:49.590 ,5,1,0.,12.0,0.,12.0,0.,12.0,0.,12.0
1981-08-26 09:40:01.590 ,6,1,0.,12.0,0.,12.0,0.,12.0,0.,12.0
1981-08-26 09:40:13.590 ,6,1,0.,12.0,0.,12.0,0.,12.0,0.,12.0
1981-08-26 09:40:25.590 ,7,1,0.,12.0,0.,12.0,0.,12.0,0.,12.0
1981-08-26 09:40:37.590 ,7,1,0.,12.0,0.,12.0,0.,12.0,0.,12.0
1981-08-26 09:40:49.590 ,7,1,0.,12.0,0.,12.0,0.,12.0,0.,12.0
1981-08-26 09:41:01.590 ,7,1,0.,12.0,0.,12.0,0.,12.0,0.,12.0
1981-08-26 09:41:13.590 ,6,1,0.,12.0,0.,12.0,0.,12.0,0.,12.0
1981-08-26 09:41:25.590 ,6,1,0.,12.0,0.,12.0,0.,12.0,0.,12.0
1981-08-26 09:41:37.590 ,5,1,0.,12.0,0.,12.0,0.,12.0,0.,12.0
1981-08-26 09:41:49.590 ,5,1,0.,12.0,0.,12.0,0.,12.0,0.,12.0
1981-08-26 09:42:01.590 ,4,1,0.,12.0,0.,12.0,0.,12.0,0.,12.0
1981-08-26 09:42:13.590 ,4,1,0.,12.0,0.,12.0,0.,12.0,0.,12.0
1981-08-26 09:42:25.590 ,3,1,0.,12.0,0.,12.0,0.,12.0,0.,12.0
1981-08-26 09:42:37.590 ,3,1,0.,12.0,0.,12.0,0.,12.0,0.,12.0
1981-08-26 09:42:49.590 ,2,1,0.,12.0,0.,12.0,0.,12.0,0.,12.0
1981-08-26 09:43:01.590 ,2,1,0.,12.0,0.,12.0,0.,12.0,0.,12.0
1981-08-26 09:43:13.590 ,1,1,0.,12.0,0.,12.0,0.,12.0,0.,12.0
1981-08-26 09:43:25.590 ,1,1,0.,12.0,0.,12.0,0.,12.0,0.,12.0
1981-08-26 09:43:37.590 ,0,1,0.,12.0,0.,12.0,0.,12.0,0.,12.0
1981-08-26 09:43:49.590 ,0,1,0.,12.0,0.,12.0,0.,12.0,0.,12.0
1981-08-26 09:44:01.590 ,0,1,0.,12.0,0.,12.0,0.,12.0,0.,12.0
1981-08-26 09:44:13.590 ,0,1,0.,12.0,0.,12.0,0.,12.0,0.,12.0
1981-08-26 09:44:25.590 ,1,1,0.,12.0,0.,12.0,0.,12.0,0.,12.0
1981-08-26 09:44:37.590 ,1,1,0.,12.0,0.,12.0,0.,12.0,0.,12.0
1981-08-26 09:44:49.590 ,2,1,0.,12.0,0.,12.0,0.,12.0,0.,12.0
1981-08-26 09:45:01.590 ,2,1,0.,12.0,0.,12.0,0.,12.0,0.,12.0
1981-08-26 09:45:13.590 ,3,1,0.,12.0,0.,12.0,0.,12.0,0.,12.0
1981-08-26 09:45:25.590 ,3,1,0.,12.0,0.,12.0,0.,12.0,0.,12.0
1981-08-26 09:45:37.590 ,4,1,0.,12.0,0.,12.0,0.,12.0,0.,12.0
1981-08-26 09:45:49.590 ,4,1,0.,12.0,0.,12.0,0.,12.0,0.,12.0
1981-08-26 09:46:01.590 ,0,0,0.,12.0,0.,12.0,0.,12.0,0.,12.0
1981-08-26 09:46:13.590 ,0,0,0.,12.0,0.,12.0,0.,12.0,0.,12.0
1981-08-26 09:47:02.190 ,0,0,,0,,0,,0,,0
1981-08-26 09:47:14.190 ,0,0,0.,12.0,0.,12.0,0.,12.0,0.,12.0
1981-08-26 09:47:13.590 ,0,0,0.,12.0,0.,12.0,0.,12.0,0.,12.0
1981-08-26 09:47:25.590 ,0,0,0.,12.0,0.,12.0,0.,12.0,0.,12.0
1981-08-26 09:47:37.590 ,6,0,,0,,0,,0,,0
1981-08-26 09:47:49.590 ,6,0,,0,,0,,0,,0
1981-08-26 09:48:01.590 ,5,1,0.,12.0,0.,12.0,0.,12.0,0.,12.0
1981-08-26 09:48:13.590 ,5,1,0.,12.0,0.,12.0,0.,12.0,0.,12.0
1981-08-26 09:48:25.590 ,4,1,0.,12.0,0.,12.0,0.,12.0,0.,12.0
1981-08-26 09:48:37.590 ,4,1,0.,12.0,0.,12.0,0.,12.0,0.,12.0
1981-08-26 09:48:49.590 ,3,1,0.,12.0,0.,12.0,0.,12.0,0.,12.0
1981-08-26 09:49:01.590 ,3,1,0.,12.0,0.,12.0,0.,12.0,0.,12.0
1981-08-26 09:49:13.590 ,2,1,0.,12.0,0.,12.0,0.,12.0,0.,12.0
1981-08-26 09:49:25.590 ,2,1,0.,12.0,0.,12.0,0.,12.0,0.,12.0
1981-08-26 09:49:37.590 ,1,1,0.,12.0,0.,12.0,0.,12.0,0.,12.0
1981-08-26 09:49:49.590 ,1,1,0.,12.0,0.,12.0,0.,12.0,0.,12.0
1981-08-26 09:50:01.590 ,0,1,0.,12.0,0.,12.0,0.,12.0,0.,12.0
1981-08-26 09:50:13.590 ,0,1,0.,12.0,0.,12.0,0.,12.0,0.,12.0
1981-08-26 09:50:25.590 ,0,1,0.,12.0,0.,12.0,0.,12.0,0.,12.0
1981-08-26 09:50:37.590 ,0,1,0.,12.0,0.,12.0,0.,12.0,0.,12.0
1981-08-26 09:50:49.590 ,1,1,0.,12.0,0.,12.0,0.,12.0,0.,12.0
1981-08-26 09:51:01.590 ,1,1,0.,12.0,0.,12.0,0.,12.0,0.,12.0
1981-08-26 09:51:13.590 ,2,1,0.,12.0,0.,12.0,0.,12.0,0.,12.0
1981-08-26 09:51:25.590 ,2,1,0.,12.0,0.,12.0,0.,12.0,0.,12.0
1981-08-26 09:51:37.590 ,3,1,0.,12.0,0.,12.0,0.,12.0,0.,12.0
1981-08-26 09:51:49.590 ,3,1,0.,12.0,0.,12.0,0.,12.0,0.,12.0
1981-08-26 09:52:01.590 ,4,1,0.,12.0,0.,12.0,0.,12.0,0.,12.0
1981-08-26 09:52:13.590 ,4,1,0.,12.0,0.,12.0,0.,12.0,0.,12.0
1981-08-26 09:52:25.590 ,5,1,0.,12.0,0.,12.0,0.,12.0,0.,12.0
1981-08-26 09:52:37.590 ,5,1,0.,12.0,0.,12.0,0.,12.0,0.,12.0
1981-08-26 09:52:49.590 ,6,1,0.,12.0,0.,12.0,0.,12.0,0.,12.0
1981-08-26 09:53:01.590 ,6,1,0.,12.0,0.,12.0,0.,12.0,0.,12.0
1981-08-26 09:53:13.590 ,7,1,0.,12.0,0.,12.0,0.,12.0,0.,12.0
1981-08-26 09:53:25.590 ,7,1,0.,12.0,0.,12.0,0.,12.0,0.,12.0
1981-08-26 09:53:37.590 ,7,1,0.,12.0,0.,12.0,0.,12.0,0.,12.0
1981-08-26 09:53:49.590 ,7,1,0.,12.0,0.,12.0,0.,12.0,0.,12.0
1981-08-26 09:54:01.590 ,6,1,0.,12.0,0.,12.0,0.,12.0,0.,12.0
1981-08-26 09:54:13.590 ,6,1,0.,12.0,0.,12.0,0.,12.0,0.,12.0
1981-08-26 09:54:25.590 ,5,1,0.,12.0,0.,12.0,0.,12.0,0.,12.0
1981-08-26 09:54:37.590 ,5,1,0.,12.0,0.,12.0,0.,12.0,0.,12.0
1981-08-26 09:54:49.590 ,4,1,0.,12.0,0.,12.0,0.,12.0,0.,12.0
1981-08-26 09:55:01.590 ,4,1,0.,12.0,0.,12.0,0.,12.0,0.,12.0
1981-08-26 09:55:13.590 ,3,1,0.,12.0,0.,12.0,0.,12.0,0.,12.0
1981-08-26 09:55:25.590 ,3,1,0.,12.0,0.,12.0,0.,12.0,0.,12.0
1981-08-26 09:55:37.590 ,2,1,0.,12.0,0.,12.0,0.,12.0,0.,12.0
1981-08-26 09:55:49.590 ,2,1,0.,12.0,0.,12.0,0.,12.0,0.,12.0
1981-08-26 09:56:01.590 ,1,1,0.,12.0,0.,12.0,0.,12.0,0.,12.0
1981-08-26 09:56:13.590 ,1,1,0.,12.0,0.,12.0,0.,12.0,0.,12.0
1981-08-26 09:56:25.590 ,0,1,0.,12.0,0.,12.0,0.,12.0,0.,12.0
1981-08-26 09:56:37.590 ,0,1,0.,12.0,0.,12.0,0.,12.0,0.,12.0
1981-08-26 09:56:49.590 ,0,1,0.,12.0,0.,12.0,0.,12.0,0.,12.0
1981-08-26 09:57:01.590 ,0,1,0.,12.0,0.,12.0,0.,12.0,0.,12.0
1981-08-26 09:57:13.590 ,1,1,0.,12.0,0.,12.0,0.,12.0,0.,12.0
1981-08-26 09:57:25.590 ,1,1,0.,12.0,0.,12.0,0.,12.0,0.,12.0
1981-08-26 09:57:37.590 ,2,1,0.,12.0,0.,12.0,0.,12.0,0.,12.0
1981-08-26 09:57:49.590 ,2,1,0.,12.0,0.,12.0,0.,12.0,0.,12.0
1981-08-26 09:58:01.590 ,3,1,0.,12.0,0.,12.0,0.,12.0,0.,12.0
1981-08-26 09:58:13.590 ,3,1,0.,12.0,0.,12.0,0.,12.0,0.,12.0
1981-08-26 09:58:25.590 ,4,1,0.,12.0,0.,12.0,0.,12.0,0.,12.0
1981-08-26 09:58:37.590 ,4,1,0.,12.0,0.,12.0,0.,12.0,0.,12.0
1981-08-26 09:58:49.590 ,5,1,0.,12.0,0.,12.0,0.,12.0,0.,12.0
1981-08-26 09:59:01.590 ,5,1,0.,12.0,0.,12.0,0.,12.0,0.,12.0
1981-08-26 09:59:13.590 ,6,1,0.,12.0,0.,12.0,0.,12.0,0.,12.0
1981-08-26 09:59:25.590 ,6,1,0.,12.0,0.,12.0,0.,12.0,0.,12.0
1981-08-26 09:59:37.590 ,7,1,0.,12.0,0.,12.0,0.,12.0,0.,12.0
1981-08-26 09:59:49.590 ,7,1,0.,12.0,0.,12.0,0.,12.0,0.,12.0
1981-08-26 10:00:01.590 ,7,1,0.,12.0,0.,12.0,0.,12.0,0.,12.0
1981-08-26 10:00:13.590 ,7,1,0.,12.0,0.,12.0,0.,12.0,0.,12.0
1981-08-26 10:00:25.590 ,7,0,0.,12.0,0.,12.0,0.,12.0,0.,12.0
1981-08-26 10:00:37.590 ,7,0,0.,12.0,0.,12.0,0.,12.0,0.,12.0
1981-08-26 10:00:49.590 ,6,1,0.,12.0,0.,12.0,0.,12.0,0.,12.0
1981-08-26 10:01:01.590 ,6,1,0.,12.0,0.,12.0,0.,12.0,0.,12.0
1981-08-26 10:01:13.590 ,6,0,0.,12.0,0.,12.0,0.,12.0,0.,12.0
1981-08-26 10:01:25.590 ,6,0,0.,12.0,0.,12.0,0.,12.0,0.,12.0
1981-08-26 10:01:37.590 ,5,1,0.,12.0,0.,12.0,0.,12.0,0.,12.0
1981-08-26 10:01:49.590 ,5,1,0.,12.0,0.,12.0,0.,12.0,0.,12.0
1981-08-26 10:02:01.590 ,5,0,0.,12.0,0.,12.0,0.,12.0,0.,12.0
1981-08-26 10:02:13.590 ,5,0,0.,12.0,0.,12.0,0.,12.0,0.,12.0
1981-08-26 10:02:25.590 ,4,1,0.,12.0,0.,12.0,0.,12.0,0.,12.0
1981-08-26 10:02:37.590 ,4,1,0.,12.0,0.,12.0,0.,12.0,0.,12.0
1981-08-26 10:02:49.590 ,4,0,0.,12.0,0.,12.0,0.,12.0,0.,12.0
1981-08-26 10:03:01.590 ,4,0,0.,12.0,0.,12.0,0.,12.0,0.,12.0
1981-08-26 10:03:13.590 ,3,1,0.,12.0,0.,12.0,0.,12.0,0.,12.0
1981-08-26 10:03:25.590 ,3,1,0.,12.0,0.,12.0,0.,12.0,0.,12.0
1981-08-26 10:03:37.590 ,3,0,0.,12.0,0.,12.0,0.,12.0,0.,12.0
1981-08-26 10:03:49.590 ,3,0,0.,12.0,0.,12.0,0.,12.0,0.,12.0
1981-08-26 10:04:01.590 ,2,1,0.,12.0,0.,12.0,0.,12.0,0.,12.0
1981-08-26 10:04:13.590 ,2,1,0.,12.0,0.,12.0,0.,12.0,0.,12.0
1981-08-26 10:04:25.590 ,2,0,0.,12.0,0.,12.0,0.,12.0,0.,12.0
1981-08-26 10:04:37.590 ,2,0,0.,12.0,0.,12.0,0.,12.0,0.,12.0
1981-08-26 10:04:49.590 ,1,1,0.,12.0,0.,12.0,0.,12.0,0.,12.0
1981-08-26 10:05:01.590 ,1,1,0.,12.0,0.,12.0,0.,12.0,0.,12.0
1981-08-26 10:05:13.590 ,1,0,0.,12.0,0.,12.0,0.,12.0,0.,12.0
1981-08-26 10:05:25.590 ,1,0,0.,12.0,0.,12.0,0.,12.0,0.,12.0
1981-08-26 10:05:37.590 ,0,1,0.,12.0,0.,12.0,0.,12.0,0.,12.0
1981-08-26 10:05:49.590 ,0,1,0.,12.0,0.,12.0,0.,12.0,0.,12.0
1981-08-26 10:06:01.590 ,0,0,0.,12.0,0.,12.0,0.,12.0,0.,12.0
1981-08-26 10:06:13.590 ,0,0,0.,12.0,0.,12.0,0.,12.0,0.,12.0
1981-08-26 10:06:25.590 ,0,1,0.,12.0,0.,12.0,0.,12.0,0.,12.0
1981-08-26 10:06:37.590 ,0,1,0.,12.0,0.,12.0,0.,12.0,0.,12.0
1981-08-26 10:06:49.590 ,0,0,0.,12.0,0.,12.0,0.,12.0,0.,12.0
1981-08-26 10:07:01.590 ,0,0,0.,12.0,0.,12.0,0.,12.0,0.,12.0
1981-08-26 10:07:13.590 ,1,1,0.,12.0,0.,12.0,0.,12.0,0.,12.0
1981-08-26 10:07:25.590 ,1,1,0.,12.0,0.,12.0,0.,12.0,0.,12.0
1981-08-26 10:07:37.590 ,1,0,0.,12.0,0.,12.0,0.,12.0,0.,12.0
1981-08-26 10:07:49.590 ,1,0,0.,12.0,0.,12.0,0.,12.0,0.,12.0
1981-08-26 10:08:01.590 ,2,1,0.,12.0,0.,12.0,0.,12.0,0.,12.0
1981-08-26 10:08:13.590 ,2,1,0.,12.0,0.,12.0,0.,12.0,0.,12.0
1981-08-26 10:08:25.590 ,2,0,0.,12.0,0.,12.0,0.,12.0,0.,12.0
1981-08-26 10:08:37.590 ,2,0,0.,12.0,0.,12.0,0.,12.0,0.,12.0
1981-08-26 10:08:49.590 ,3,1,0.,12.0,0.,12.0,0.,12.0,0.,12.0
1981-08-26 10:09:01.590 ,3,1,0.,12.0,0.,12.0,0.,12.0,0.,12.0
1981-08-26 10:09:13.590 ,3,0,0.,12.0,0.,12.0,0.,12.0,0.,12.0
1981-08-26 10:09:25.590 ,3,0,0.,12.0,0.,12.0,0.,12.0,0.,12.0
1981-08-26 10:09:37.590 ,4,1,0.,12.0,0.,12.0,0.,12.0,0.,12.0
1981-08-26 10:09:49.590 ,4,1,0.,12.0,0.,12.0,0.,12.0,0.,12.0
1981-08-26 10:10:01.590 ,4,0,0.,12.0,0.,12.0,0.,12.0,0.,12.0
1981-08-26 10:10:13.590 ,4,0,0.,12.0,0.,12.0,0.,12.0,0.,12.0
1981-08-26 10:10:25.590 ,5,1,0.,12.0,0.,12.0,0.,12.0,0.,12.0
1981-08-26 10:10:37.590 ,5,1,0.,12.0,0.,12.0,0.,12.0,0.,12.0
1981-08-26 10:10:49.590 ,5,0,0.,12.0,0.,12.0,0.,12.0,0.,12.0
1981-08-26 10:11:01.590 ,5,0,0.,12.0,0.,12.0,0.,12.0,0.,12.0
1981-08-26 10:11:13.590 ,6,1,0.,12.0,0.,12.0,0.,12.0,0.,12.0
1981-08-26 10:11:25.590 ,6,1,0.,12.0,0.,12.0,0.,12.0,0.,12.0
1981-08-26 10:11:37.590 ,6,0,0.,12.0,0.,12.0,0.,12.0,0.,12.0
1981-08-26 10:11:49.590 ,6,0,0.,12.0,0.,12.0,0.,12.0,0.,12.0
1981-08-26 10:12:01.590 ,7,1,0.,12.0,0.,12.0,0.,12.0,0.,12.0
1981-08-26 10:12:13.590 ,7,1,0.,12.0,0.,12.0,0.,12.0,0.,12.0
1981-08-26 10:12:25.590 ,7,0,0.,12.0,0.,12.0,0.,12.0,0.,12.0
1981-08-26 10:12:37.590 ,7,0,0.,12.0,0.,12.0,0.,12.0,0.,12.0
1981-08-26 10:13:37.590 ,0,0,0.,12.0,0.,12.0,0.,12.0,0.,12.0
1981-08-26 10:13:49.590 ,0,0,0.,12.0,0.,12.0,0.,12.0,0.,12.0
1981-08-26 10:14:01.590 ,0,0,0.,12.0,0.,12.0,0.,12.0,0.,12.0
1981-08-26 10:14:13.590 ,0,0,0.,12.0,0.,12.0,0.,12.0,0.,12.0
1981-08-26 10:14:43.590 ,0,0,,0,,0,,0,,0
1981-08-26 10:14:55.590 ,0,0,,0,,0,,0,,0
1981-08-26 10:14:49.590 ,0,0,0.,12.0,0.,12.0,0.,12.0,0.,12.0
1981-08-26 10:15:01.590 ,0,0,0.,12.0,0.,12.0,0.,12.0,0.,12.0
1981-08-26 10:15:13.590 ,4,1,0.,12.0,0.,12.0,0.,12.0,0.,12.0
1981-08-26 10:15:25.590 ,4,1,0.,12.0,0.,12.0,0.,12.0,0.,12.0
1981-08-26 10:15:37.590 ,4,0,0.,12.0,0.,12.0,0.,12.0,0.,12.0
1981-08-26 10:15:49.590 ,4,0,0.,12.0,0.,12.0,0.,12.0,0.,12.0
1981-08-26 10:16:01.590 ,3,1,0.,12.0,0.,12.0,0.,12.0,0.,12.0
1981-08-26 10:16:13.590 ,3,1,0.,12.0,0.,12.0,0.,12.0,0.,12.0
1981-08-26 10:16:25.590 ,3,0,0.,12.0,0.,12.0,0.,12.0,0.,12.0
1981-08-26 10:16:37.590 ,3,0,0.,12.0,0.,12.0,0.,12.0,0.,12.0
1981-08-26 10:16:49.590 ,2,1,0.,12.0,0.,12.0,0.,12.0,0.,12.0
1981-08-26 10:17:01.590 ,2,1,0.,12.0,0.,12.0,0.,12.0,0.,12.0
1981-08-26 10:17:13.590 ,2,0,0.,12.0,0.,12.0,0.,12.0,0.,12.0
1981-08-26 10:17:25.590 ,2,0,0.,12.0,0.,12.0,0.,12.0,0.,12.0
1981-08-26 10:17:37.590 ,1,1,0.,12.0,0.,12.0,0.,12.0,0.,12.0
1981-08-26 10:17:49.590 ,1,1,0.,12.0,0.,12.0,0.,12.0,0.,12.0
1981-08-26 10:18:01.590 ,1,0,0.,12.0,0.,12.0,0.,12.0,0.,12.0
1981-08-26 10:18:13.590 ,1,0,0.,12.0,0.,12.0,0.,12.0,0.,12.0
1981-08-26 10:18:25.590 ,0,1,0.,12.0,0.,12.0,0.,12.0,0.,12.0
1981-08-26 10:18:37.590 ,0,1,0.,12.0,0.,12.0,0.,12.0,0.,12.0
1981-08-26 10:18:49.590 ,0,0,0.,12.0,0.,12.0,0.,12.0,0.,12.0
1981-08-26 10:19:01.590 ,0,0,0.,12.0,0.,12.0,0.,12.0,0.,12.0
1981-08-26 10:19:13.590 ,0,1,0.,12.0,0.,12.0,0.,12.0,0.,12.0
1981-08-26 10:19:25.590 ,0,1,0.,12.0,0.,12.0,0.,12.0,0.,12.0
1981-08-26 10:19:37.590 ,0,0,0.,12.0,0.,12.0,0.,12.0,0.,12.0
1981-08-26 10:19:49.590 ,0,0,0.,12.0,0.,12.0,0.,12.0,0.,12.0
1981-08-26 10:20:01.590 ,1,1,0.,12.0,0.,12.0,0.,12.0,0.,12.0
1981-08-26 10:20:13.590 ,1,1,0.,12.0,0.,12.0,0.,12.0,0.,12.0
1981-08-26 10:20:25.590 ,1,0,0.,12.0,0.,12.0,0.,12.0,0.,12.0